sat.trackr.live / text

‹ back to catalog

STARLINK-31048

NORAD 58544 · 2023-192P

PAYLOAD ACTIVE UNKNOWN

§ Identity

Operator
Country
US
Launch date
2023-12-08
Launch site
AFWTR
Launch vehicle
Mass (kg)
RCS (m²)

Purposes: comms

External: N2YO · Heavens-Above · Gunter

§ Orbital elements

Epoch: 2026-05-25T01:46:01.043616Z

Period
94.11 min
Inclination
53.1607°
Eccentricity
0.0001154
Mean motion
15.30195128 rev/d
Perigee alt
474.4 km
Apogee alt
476.0 km
Semi-major
6,853.4 km
B*
1.0973e-5
RAAN
67.6505°
Arg perigee
84.3506°
Mean anomaly
275.7627°
Rev number
13,768

§ Raw data

STARLINK-310481 58544U 23192P   26145.07362319 -.00000034  00000+0  10973-4 0  99932 58544  53.1607  67.6505 0001154  84.3506 275.7627 15.30195128137682

JSON: /api/v1/satellites/58544 · /tle

For live sub-satellite position, see the globe view (requires WebGL).

§ Visibility from observer

Set your observer location to see the next 7 days of passes ≥ 10°. The values pass through the URL so the page stays shareable.

No JS? Fill the form by hand. The geolocation button needs JavaScript.